Regional Weather Roundup
Issued by NWS Charleston, WV

Home | Current Version | Previous Version | Text Only | Print | Product List | Glossary Off
Versions: 1 2 3 4 5 6 7 8 9 10 11 12 13 14 15 16 17 18 19 20 21 22 23 24 25 26 27 28 29 30 31 32 33 34 35 36 37 38 39 40 41 42 43 44 45 46 47 48 49 50

000
ASUS41 KRLX 311310
RWRRLX
West Virginia Regional Weather Roundup
National Weather Service Charleston WV
800 AM EST SAT JAN 31 2015

Note: "fair" indicates few or no clouds below 12,000 feet with no
significant weather and/or obstructions to visibility.

WVZ003-311400-
Northern Panhandle of West Virginia

CITY           SKY/WX    TMP DP  RH WIND       PRES   REMARKS
WHEELING       PTCLDY     7   3  84 S6        30.34S WCI  -3
$$

WVZ009-311400-
Northwest West Virginia

CITY           SKY/WX    TMP DP  RH WIND       PRES   REMARKS
PARKERSBURG    CLEAR      9   5  84 CALM      30.42S
$$

WVZ006-311400-
Western West Virginia

CITY           SKY/WX    TMP DP  RH WIND       PRES   REMARKS
HUNTINGTON     CLEAR     13  11  92 E3        30.39S
$$

WVZ015-311400-
West Central West Virginia

CITY           SKY/WX    TMP DP  RH WIND       PRES   REMARKS
CHARLESTON     CLEAR     14  11  87 CALM      30.39R
$$

WVZ022-031-311400-
North Central West Virginia

CITY           SKY/WX    TMP DP  RH WIND       PRES   REMARKS
CLARKSBURG     CLEAR      8   3  80 CALM      30.36F
MORGANTOWN     CLEAR      8   3  80 CALM      30.36S
$$

WVZ025-035-042-045-311400-
Southern West Virginia

CITY           SKY/WX    TMP DP  RH WIND       PRES   REMARKS
BECKLEY        PTCLDY    10   6  84 W3        30.28R
LOGAN            N/A     16  14  93 CALM      30.34R
BLUEFIELD      PTCLDY    14   8  77 W8        30.26R WCI   3
LEWISBURG      PTCLDY    16   9  75 SW8       30.26R WCI   5
$$

WVZ047-311400-
Northern Mountains of West Virginia

CITY           SKY/WX    TMP DP  RH WIND       PRES   REMARKS
ELKINS         PTCLDY     0  -2  91 CALM      30.31R
$$

WVZ052-311400-
Eastern Panhandle of West Virginia

CITY           SKY/WX    TMP DP  RH WIND       PRES   REMARKS
MARTINSBURG    CLEAR     18  -1  43 W12       30.33R WCI   5
PETERSBURG       N/A    N/A N/A N/A MISG        N/A
$$



USA.gov is the U.S. government's official web portal to all federal, state and local government web resources and services.